This is the latest recevied weather packets stored in our database for station/object KRUE. If no packets are shown the sender has not sent any weather packets the latest 10 day(s).
| Time | Temp. | Humidity | Pressure | Rain* | Wind** | Luminosity | Snow |
|---|---|---|---|---|---|---|---|
| 1777428817 | 20.56° C | 77% | 1010.5 hPa | - | - | - | - |
| 1777428220 | 20.56° C | 77% | 1010.5 hPa | - | - | - | - |
| 1777427618 | 23.89° C | 78% | 1009.5 hPa | - | - | - | - |
| 1777427019 | 23.89° C | 78% | 1012.5 hPa | - | - | - | - |
| 1777426420 | 23.89° C | 78% | 1012.5 hPa | - | - | - | - |
| 1777425817 | 23.89° C | 78% | 1012.5 hPa | - | - | - | - |
| 1777425218 | - | - | 1012.5 hPa | - | - | - | - |
| 1777424616 | - | - | 1012.5 hPa | - | - | - | - |
| 1777424018 | 25° C | 78% | 1009.5 hPa | - | - | - | - |
| 1777423414 | 25.56° C | 74% | 1012.2 hPa | - | - | - | - |
| 1777422816 | 25° C | 83% | 1008.8 hPa | - | - | - | - |
| 1777422222 | 25° C | 83% | 1008.8 hPa | - | - | - | - |
| 1777421620 | 25° C | 78% | 1008.8 hPa | - | - | - | - |
| 1777421021 | 25° C | 78% | 1008.5 hPa | - | - | - | - |
| 1777420419 | 25° C | 78% | 1007.1 hPa | - | - | - | - |
| 1777419822 | 25.56° C | 74% | 1006.8 hPa | - | - | - | - |
| 1777419219 | 25.56° C | 74% | 1006.8 hPa | - | - | - | - |
| 1777418622 | 25.56° C | 74% | 1008.5 hPa | - | - | - | - |
| 1777418022 | 25.56° C | 74% | 1007.8 hPa | - | - | - | - |
| 1777417417 | 25.56° C | 74% | 1007.8 hPa | - | - | - | - |
| 1777416818 | 25.56° C | 74% | 1007.8 hPa | - | - | - | - |
| 1777416223 | 26.67° C | 69% | 1007.8 hPa | - | - | - | - |
| 1777415624 | 26.67° C | 69% | 1007.8 hPa | - | - | - | - |
| 1777415020 | 26.67° C | 69% | 1007.8 hPa | - | - | - | - |
| 1777414420 | 26.67° C | 69% | 1007.8 hPa | - | - | - | - |
* Rain since midnight (hover to see other rain measurements)
** Current wind speed in m/s (hover to see current wind gust speed)